Location: Squirrel Cove
(50.1074°N, 124.9139°W)
Time: 21:55:48
(UTC-07:00)

First-Move - Visible Passes

Search period start: 07 June 2023 00:00
Search period end: 17 June 2023 00:00
Orbit: 561 x 637 km, 97.7° (Epoch: 07 June)

Date Brightness Start Highest point End Pass type
(mag) Time Alt. Az. Time Alt. Az. Time Alt. Az.
07 Jun ? 03:31:47 10° ENE 03:33:16 11° E 03:34:45 10° ESE visible
08 Jun ? 03:41:48 10° NE 03:44:17 15° E 03:46:44 10° ESE visible
09 Jun ? 03:52:09 10° NE 03:55:14 18° E 03:58:18 10° SE visible
10 Jun ? 04:02:38 10° NE 04:06:10 23° E 04:09:40 10° SE visible
11 Jun ? 04:13:13 10° NE 04:17:04 28° E 04:20:53 10° SSE visible
12 Jun ? 04:23:50 10° NNE 04:27:57 35° E 04:31:59 10° SSE visible
16 Jun ? 03:33:05 10° ENE 03:34:45 12° E 03:36:22 10° ESE visible
